EW4479 Weather Reports


time (UTC)temp
C
wind
direction
speed
KPH
gust
KPH
rain 1hr
cm
rain 24hr
cm
rain mn
cm
humidity
%
barometer
mb
20220925052331 7 29 0.0 0.0 0.00 0.10 0.03 99 1013.0
20220925051330 7 29 0.0 0.0 0.00 0.10 0.03 99 1013.0
20220925050828 6 29 0.0 0.0 0.00 0.10 0.03 99 1013.1
20220925045333 7 29 0.0 0.0 0.00 0.10 0.03 99 1012.9
20220925044829 7 29 0.0 0.0 0.00 0.10 0.03 99 1012.9
20220925044329 7 29 0.0 0.0 0.00 0.10 0.03 99 1012.9
20220925042830 7 295 0.0 0.0 0.00 0.10 0.03 99 1012.8
20220925041830 7 295 0.0 0.0 0.00 0.10 0.03 99 1012.9
20220925041330 7 295 0.0 0.0 0.00 0.10 0.03 99 1012.9
20220925040329 7 295 0.0 0.0 0.00 0.10 0.03 99 1012.8
20220925035330 6 295 0.0 0.0 0.00 0.10 0.03 99 1013.0
20220925034829 6 295 0.0 0.0 0.00 0.10 0.03 99 1013.0
20220925033829 6 295 0.0 0.0 0.00 0.10 0.03 99 1013.2
20220925033329 6 295 0.0 0.0 0.00 0.10 0.03 99 1013.2
20220925031828 6 295 0.0 0.0 0.00 0.10 0.03 99 1013.3
20220925031330 6 295 0.0 0.0 0.00 0.10 0.03 99 1013.3
20220925030829 6 295 0.0 0.0 0.00 0.10 0.03 99 1013.4
20220925025829 6 295 0.0 1.6 0.00 0.10 0.03 99 1013.4
20220925024323 6 29 0.0 0.0 0.00 0.10 0.03 99 1013.4
20220925023822 6 29 0.0 0.0 0.00 0.10 0.03 99 1013.5
20220925022316 6 29 0.0 0.0 0.00 0.10 0.03 99 1013.4
20220925020810 7 29 0.0 0.0 0.00 0.10 0.03 99 1013.4
20220925020306 7 29 0.0 0.0 0.00 0.10 0.03 99 1013.3
20220925015802 7 29 0.0 0.0 0.00 0.10 0.03 99 1013.3
20220925014303 7 29 0.0 0.0 0.00 0.10 0.03 99 1013.4
20220925013801 7 29 0.0 0.0 0.00 0.10 0.03 99 1013.4
20220925012802 7 29 0.0 0.0 0.00 0.10 0.03 99 1013.5
20220925011802 7 29 0.0 0.0 0.03 0.10 0.03 99 1013.4
20220925011303 7 29 0.0 0.0 0.03 0.10 0.03 99 1013.5
20220925010302 8 29 0.0 0.0 0.03 0.10 0.03 99 1013.6
20220925005802 8 29 0.0 0.0 0.03 0.10 0.03 99 1013.7
20220925004802 8 29 0.0 0.0 0.03 0.10 0.03 99 1013.8
20220925003802 8 29 0.0 0.0 0.03 0.10 0.03 99 1013.8
20220925002306 8 29 0.0 0.0 0.00 0.08 0.00 99 1013.9
20220925001802 8 29 0.0 0.0 0.00 0.08 0.00 99 1014.0
20220925000802 8 295 0.0 1.6 0.00 0.08 0.00 99 1014.1
20220925000303 8 295 0.0 1.6 0.00 0.08 0.00 99 1014.1
20220924235305 8 295 0.0 0.0 0.00 0.08 0.00 99 1014.1
20220924234802 8 295 0.0 0.0 0.00 0.08 0.00 99 1014.1
20220924233304 8 295 0.0 0.0 0.00 0.08 0.00 99 1013.9
20220924231303 8 295 0.0 0.0 0.00 0.08 0.00 99 1013.8
20220924230804 9 295 0.0 0.0 0.00 0.08 0.00 99 1013.9
20220924225804 9 295 0.0 0.0 0.00 0.08 0.00 98 1013.9
20220924225305 9 295 0.0 0.0 0.00 0.08 0.00 98 1014.0
20220924224303 9 295 0.0 0.0 0.00 0.08 0.00 98 1014.1
20220924223802 10 295 0.0 0.0 0.00 0.08 0.00 98 1014.1
20220924223303 10 295 0.0 0.0 0.00 0.08 0.00 98 1014.0
20220924222305 10 295 0.0 0.0 0.00 0.08 0.00 98 1014.1
20220924221802 10 295 0.0 0.0 0.00 0.08 0.00 98 1014.1
20220924220302 10 295 0.0 0.0 0.00 0.08 0.00 98 1014.3
20220924215801 10 295 0.0 0.0 0.00 0.08 0.08 98 1014.4
20220924213801 11 295 0.0 0.0 0.00 0.08 0.08 98 1014.4
20220924212305 11 295 0.0 0.0 0.00 0.08 0.08 98 1014.3
20220924211802 11 295 0.0 0.0 0.00 0.08 0.08 98 1014.2
20220924210315 11 295 0.0 0.0 0.00 0.08 0.08 98 1014.2
20220924205802 11 295 0.0 0.0 0.00 0.08 0.08 98 1014.2
20220924204802 11 295 0.0 0.0 0.00 0.08 0.08 98 1014.2
20220924203802 11 295 0.0 0.0 0.00 0.08 0.08 98 1014.2
20220924202801 11 295 0.0 0.0 0.00 0.08 0.08 98 1014.3
20220924202301 11 295 0.0 0.0 0.00 0.08 0.08 98 1014.3
20220924201759 11 295 0.0 0.0 0.00 0.08 0.08 98 1014.3
20220924201257 11 295 0.0 0.0 0.00 0.08 0.08 98 1014.2
20220924200752 11 295 0.0 3.2 0.00 0.08 0.08 98 1014.3
20220924195243 11 98 0.0 1.6 0.00 0.08 0.08 98 1014.4
20220924193736 11 98 0.0 0.0 0.00 0.08 0.08 98 1014.3
20220924193230 11 98 0.0 0.0 0.00 0.08 0.08 98 1014.4
20220924192229 12 98 0.0 0.0 0.03 0.08 0.08 98 1014.4
20220924191730 12 98 0.0 0.0 0.03 0.08 0.08 98 1014.3
20220924190729 12 126 0.0 1.6 0.03 0.08 0.08 97 1014.3
20220924190228 12 126 0.0 1.6 0.03 0.08 0.08 97 1014.3
20220924185228 12 98 0.0 0.0 0.03 0.08 0.08 97 1014.4
20220924184230 12 98 0.0 0.0 0.03 0.08 0.08 97 1014.3
20220924182228 12 98 0.0 0.0 0.00 0.05 0.05 97 1014.2
20220924181229 12 98 0.0 1.6 0.00 0.05 0.05 97 1014.2
20220924180730 12 126 0.0 1.6 0.00 0.05 0.05 97 1014.2
20220924175232 12 80 0.0 1.6 0.00 0.05 0.05 97 1014.1
20220924174231 12 5 0.0 0.0 0.00 0.05 0.05 97 1014.1
20220924173234 12 5 0.0 0.0 0.00 0.05 0.05 97 1013.9
20220924172729 12 5 0.0 0.0 0.00 0.05 0.05 97 1014.0
20220924172229 12 5 0.0 0.0 0.00 0.05 0.05 97 1014.1
20220924171226 12 5 0.0 0.0 0.00 0.05 0.05 96 1014.1
20220924170722 12 5 0.0 0.0 0.00 0.05 0.05 96 1014.0
20220924170220 12 5 0.0 0.0 0.00 0.05 0.05 96 1014.1
20220924165716 12 5 0.0 0.0 0.00 0.05 0.05 96 1014.1
20220924164710 13 5 0.0 0.0 0.00 0.05 0.05 95 1014.0
20220924164210 13 5 0.0 0.0 0.00 0.05 0.05 95 1014.0
20220924162708 13 5 0.0 0.0 0.00 0.05 0.05 95 1013.9
20220924160705 13 5 0.0 0.0 0.00 0.05 0.05 94 1014.1
20220924160201 13 5 0.0 0.0 0.00 0.05 0.05 94 1014.1
20220924155655 13 5 0.0 0.0 0.00 0.05 0.05 94 1013.9
20220924154653 13 5 0.0 0.0 0.03 0.05 0.05 94 1014.2
20220924153142 13 5 0.0 0.0 0.03 0.05 0.05 94 1014.0
20220924152637 13 5 0.0 0.0 0.03 0.05 0.05 94 1014.1
20220924152136 13 5 0.0 0.0 0.03 0.05 0.05 93 1014.1
20220924151630 13 5 0.0 0.0 0.03 0.05 0.05 93 1014.2
20220924151129 13 5 0.0 0.0 0.03 0.05 0.05 93 1014.2
20220924150128 13 5 0.0 1.6 0.03 0.05 0.05 92 1014.2
20220924145123 13 320 0.0 1.6 0.03 0.05 0.05 90 1014.2
20220924143615 13 5 0.0 1.6 0.00 0.05 0.05 91 1014.2
20220924143115 13 5 0.0 3.2 0.00 0.05 0.05 90 1014.1
20220924142616 13 5 1.6 3.2 0.00 0.05 0.05 88 1014.2
20220924142108 14 355 0.0 1.6 0.00 0.05 0.05 87 1014.3
20220924141605 14 355 0.0 3.2 0.00 0.05 0.05 87 1014.2
20220924140604 14 307 0.0 3.2 0.00 0.05 0.05 87 1014.4
20220924140115 14 307 0.0 3.2 0.00 0.05 0.05 84 1014.3
20220924135601 14 307 0.0 3.2 0.00 0.05 0.05 84 1014.3
20220924134600 14 337 0.0 4.8 0.00 0.05 0.05 84 1014.2
20220924134101 14 306 1.6 4.8 0.00 0.05 0.05 83 1014.2
20220924133602 14 272 1.6 3.2 0.00 0.05 0.05 84 1014.4
20220924133101 14 270 1.6 3.2 0.00 0.05 0.05 84 1014.3
20220924132600 14 310 1.6 3.2 0.00 0.05 0.05 84 1014.5
20220924131102 14 273 0.0 6.4 0.00 0.05 0.05 85 1014.4
20220924130100 14 297 1.6 4.8 0.00 0.05 0.05 86 1014.5
20220924125100 14 328 3.2 9.7 0.00 0.05 0.05 87 1014.5
20220924124601 14 319 1.6 6.4 0.00 0.05 0.05 88 1014.5
20220924123602 13 281 0.0 4.8 0.00 0.05 0.05 89 1014.6
20220924122102 13 285 1.6 4.8 0.00 0.05 0.05 88 1014.6
20220924121601 13 303 1.6 4.8 0.00 0.05 0.05 89 1014.6
20220924115601 13 275 0.0 4.8 0.00 0.05 0.05 89 1014.9
20220924114601 13 274 0.0 4.8 0.00 0.05 0.05 89 1015.0
20220924113600 13 279 0.0 4.8 0.00 0.05 0.05 91 1015.0
20220924112600 13 315 0.0 4.8 0.00 0.05 0.05 90 1015.0
20220924112101 13 323 1.6 6.4 0.00 0.05 0.05 90 1015.1
20220924110602 13 321 1.6 6.4 0.00 0.05 0.05 91 1014.9
20220924110104 13 265 1.6 6.4 0.00 0.05 0.05 91 1015.0
20220924104602 13 298 0.0 6.4 0.00 0.05 0.05 91 1014.9
20220924104058 13 292 0.0 3.2 0.00 0.05 0.05 91 1015.0
20220924103556 13 296 0.0 9.7 0.00 0.05 0.05 91 1015.0
20220924103056 13 290 1.6 9.7 0.00 0.05 0.05 91 1014.9
20220924102553 13 298 1.6 8.0 0.00 0.05 0.05 91 1014.8
20220924101551 13 304 1.6 6.4 0.00 0.05 0.05 91 1014.9
20220924101045 13 324 1.6 11.3 0.00 0.05 0.05 91 1015.0
20220924100541 13 261 1.6 11.3 0.00 0.05 0.05 91 1015.0
20220924100040 13 284 1.6 11.3 0.00 0.05 0.05 91 1014.9
20220924095535 13 0 4.8 11.3 0.00 0.05 0.05 91 1015.0
20220924095033 13 295 0.0 9.7 0.00 0.05 0.05 91 1015.0
20220924094029 13 299 0.0 6.4 0.00 0.05 0.05 91 1014.9
20220924093529 13 298 0.0 8.0 0.00 0.05 0.05 91 1014.9
20220924093044 13 267 1.6 8.0 0.00 0.05 0.05 90 1014.9
20220924092028 13 238 1.6 9.7 0.00 0.05 0.05 90 1014.9
20220924091528 13 238 0.0 6.4 0.00 0.05 0.05 90 1014.8
20220924090531 13 153 1.6 9.7 0.00 0.05 0.05 89 1014.6
20220924084529 13 231 1.6 6.4 0.00 0.05 0.05 88 1014.5
20220924082043 13 290 0.0 0.0 0.00 0.05 0.05 95 1014.5
20220924081044 12 290 0.0 0.0 0.05 0.05 0.05 95 1014.4
20220924080530 12 290 0.0 0.0 0.05 0.05 0.05 95 1014.4
20220924075031 12 163 0.0 0.0 0.05 0.05 0.05 96 1014.3
20220924074530 11 163 0.0 0.0 0.05 0.05 0.05 96 1014.3
20220924074046 11 163 0.0 0.0 0.05 0.05 0.05 95 1014.2
20220924071029 10 176 0.0 0.0 0.00 0.00 0.00 95 1014.2
20220924070045 10 176 0.0 0.0 0.00 0.00 0.00 95 1014.0
20220924065530 10 176 0.0 0.0 0.00 0.00 0.00 95 1013.9
20220924064524 10 176 0.0 0.0 0.00 0.00 0.00 95 1013.9
20220924064021 10 176 0.0 0.0 0.00 0.00 0.00 95 1013.8
20220924063017 10 176 0.0 0.0 0.00 0.00 0.00 95 1013.7
20220924062009 9 176 0.0 0.0 0.00 0.00 0.00 96 1013.7
20220924061517 9 176 0.0 0.0 0.00 0.00 0.00 96 1013.7
20220924061005 9 176 0.0 0.0 0.00 0.00 0.00 96 1013.8
20220924060502 9 176 0.0 0.0 0.00 0.00 0.00 96 1013.8
20220924055502 8 176 0.0 0.0 0.00 0.00 0.00 96 1013.7
20220924055002 8 176 0.0 0.0 0.00 0.00 0.00 96 1013.8
20220924054002 8 176 0.0 0.0 0.00 0.00 0.00 96 1013.8